Flag for U.S.A. Weather past 2 weeks in Las Cruces, New Mexico, U.S.A.

Now
32 °F

Clear.


Feels Like: 29 °F
Forecast: 23 / 52 °F
Wind: 3 mph from Southeast

Location: Las Cruces International

Current Time: Dec 29, 2014 at 1:23:19 AM

Latest Report: Dec 29, 2014 at 12:55 AM


Visibility: 10 mi

Pressure: 30.08 "Hg

Humidity: 87%

Dew point: 29 °F

Location of Las CrucesLocation

Historic Weather in Las Cruces — Graph

°F

Las Cruces temperature yesterday

Maximum temperature yesterday: 46 °F (at 3:35 PM)
Minimum temperature yesterday: 20 °F (at 7:15 AM)
Average temperature yesterday: 34 °F

Past Weeks' High & Low Weather Summary

 TemperatureHumidityPressure
High65 °F (Dec 25, 3:55 PM)98% (Dec 19, 2:15 AM)30.29 "Hg (Dec 19, 2:15 AM)
Low20 °F (Dec 28, 7:15 AM)13% (Dec 25, 1:35 PM)29.67 "Hg (Dec 25, 3:55 PM)
Average41 °F57%30.06 "Hg
* Reported Dec 14 12:15 AM — Dec 29 12:15 AM, Las Cruces, Weather by CustomWeather, © 2014

Note: Actual official high and low records may vary slightly from our data, if they occured in-between our weather recording intervals... More about our weather records

Advertising

Las Cruces weather history for previous 24 hours

 ConditionsComfort  
Time TempWeatherWind HumidityBarometerVisibility
12:15 AM
Dec 29
34 °FClear.6 mph83%30.09 "Hg10 mi
11:55 PM
Dec 28
35 °FClear.No wind81%30.10 "Hg10 mi
11:35 PM35 °FClear.No wind79%30.11 "Hg10 mi
11:15 PM35 °FClear.No wind80%30.12 "Hg10 mi
10:55 PM36 °FClear.3 mph78%30.12 "Hg10 mi
10:35 PM36 °FClear.5 mph77%30.11 "Hg10 mi
10:15 PM36 °FClear.5 mph75%30.12 "Hg10 mi
9:55 PM37 °FClear.7 mph73%30.12 "Hg10 mi
9:15 PM37 °FClear.7 mph70%30.12 "Hg10 mi
8:55 PM37 °FClear.8 mph69%30.12 "Hg10 mi
8:15 PM37 °FClear.6 mph66%30.12 "Hg10 mi
7:55 PM38 °FClear.5 mph60%30.12 "Hg10 mi
7:35 PM39 °FClear.5 mph58%30.13 "Hg10 mi
7:15 PM39 °FClear.6 mph59%30.12 "Hg10 mi
6:55 PM40 °FClear.6 mph59%30.13 "Hg10 mi
6:35 PM40 °FClear.8 mph59%30.12 "Hg10 mi
6:15 PM39 °FClear.6 mph59%30.12 "Hg10 mi
5:55 PM40 °FClear.5 mph57%30.11 "Hg10 mi
5:15 PM42 °FClear.7 mph53%30.10 "Hg10 mi
4:55 PM43 °FSunny.8 mph48%30.10 "Hg10 mi
4:35 PM45 °FSunny.8 mph41%30.10 "Hg10 mi
4:15 PM45 °FSunny.7 mph38%30.10 "Hg10 mi
3:55 PM46 °FSunny.9 mph36%30.11 "Hg10 mi
3:35 PM46 °FSunny.9 mph36%30.11 "Hg10 mi
3:15 PM46 °FSunny.6 mph34%30.12 "Hg10 mi
2:35 PM45 °FSunny.7 mph38%30.12 "Hg10 mi
2:15 PM45 °FSunny.8 mph38%30.12 "Hg10 mi
1:55 PM45 °FSunny.8 mph38%30.13 "Hg10 mi
1:15 PM43 °FSunny.9 mph40%30.16 "Hg10 mi
12:55 PM44 °FSunny.9 mph40%30.16 "Hg10 mi
12:35 PM42 °FSunny.10 mph41%30.17 "Hg10 mi
12:15 PM42 °FSunny.10 mph45%30.19 "Hg10 mi
11:55 AM41 °FSunny.6 mph48%30.20 "Hg10 mi
11:35 AM40 °FSunny.7 mph49%30.22 "Hg10 mi
11:15 AM40 °FSunny.5 mph53%30.23 "Hg10 mi
10:55 AM38 °FSunny.6 mph55%30.25 "Hg10 mi
10:35 AM36 °FSunny.3 mph55%30.25 "Hg10 mi
10:15 AM35 °FSunny.No wind54%30.25 "Hg10 mi
9:55 AM34 °FSunny.No wind55%30.25 "Hg10 mi
9:15 AM32 °FSunny.No wind61%30.25 "Hg10 mi
8:55 AM30 °FSunny.No wind64%30.25 "Hg10 mi
8:35 AM28 °FSunny.No wind72%30.25 "Hg10 mi
8:15 AM26 °FSunny.No wind77%30.25 "Hg10 mi
7:55 AM23 °FSunny.No wind86%30.25 "Hg10 mi
7:15 AM20 °FSunny.No wind88%30.25 "Hg10 mi
6:55 AM21 °FClear.No wind82%30.25 "Hg10 mi
6:15 AM20 °FClear.No wind90%30.25 "Hg10 mi
5:55 AM20 °FClear.6 mph88%30.25 "Hg10 mi
5:35 AM21 °FClear.6 mph87%30.24 "Hg10 mi
5:15 AM21 °FClear.5 mph89%30.24 "Hg10 mi
4:55 AM22 °FClear.No wind87%30.24 "Hg10 mi
4:15 AM22 °FClear.5 mph90%30.24 "Hg10 mi
3:55 AM22 °FClear.7 mph90%30.24 "Hg10 mi
3:15 AM23 °FClear.No wind89%30.25 "Hg10 mi
2:55 AM24 °FClear.No wind88%30.25 "Hg10 mi
2:15 AM25 °FClear.No wind79%30.26 "Hg10 mi
1:55 AM27 °FClear.No wind75%30.26 "Hg10 mi
1:15 AM28 °FClear.5 mph77%30.26 "Hg10 mi
Weather by CustomWeather, © 2014

See weather overviewHow to use our weather pages